Content
SEND FEEDBACK

Daily
Averages
Monthly
Summary
United States of America

POTTS JUNCTION, GUAM


Home > North America > United States > Guam
Elevation: 110 meters     Latitude: 13 33N     Longitude: 144 50E

WEATHER
 
SELECT A DAY
Number of Records: 214,811;   Date Range: 1/1/95 - 11/22/14
 
SHARE

PRINT THIS DATA

[ ← Previous Day ]
WEATHER ALMANAC - 31 JANUARY, 2013
[ Next Day → ]
[ °F ]   °C
Weather ElementAverageHighLow
Temperature25.1 °C27.8 °C (11:54 am)23 °C (6:37 pm)
Dewpoint22.8 °C24 °C (9:32 am)20.6 °C (11:54 pm)
Humidity87.4 %100 % (6:37 pm)69 % (11:54 am)
Barometer1016.3 hPa1018.3 hPa (9:15 am)1014.2 hPa (2:54 pm)
Wind Speed28.8 km/h42.6 km/h (2:54 pm)
Wind Gust57.5 km/h (12:47 pm)
Weather ElementAverage
Visibility13.7 km
Wind DirectionNE (45.7 °)

Weather ElementTotal
Precipitation10.16 mm
Cooling Degree Days7.1 (Base 18.3)
Growing Degree Days15.4 (Base 10)
Averaged from 46 records on 31 January, 2013
WEATHER CONDITIONS BREAKOUT
WIND DIRECTION BREAKOUT
WEATHER BY HOUR - 31 JANUARY, 2013
[ °F ]   °C
Local TimeTemperatureDewpointHumidityBarometerVisibilityWind DirectionWind SpeedGust SpeedPrecipitationEventsConditions
1:54 AM25.6 °C23.3 °C87 %1014.9 hPa16.1 kmENE (70°)18.5 km/h0 mmRainLight Rain
2:19 AM26 °C23 °C83 %1015.6 hPa6.4 kmENE (70°)24.1 km/h1.02 mmRainHeavy Rain
2:43 AM25 °C23 °C89 %1015.2 hPa16.1 kmEast (80°)18.5 km/h1.52 mmOvercast
2:54 AM25.6 °C23.3 °C87 %1014.6 hPa16.1 kmENE (70°)20.4 km/h1.52 mmOvercast
3:54 AM25.6 °C22.8 °C84 %1014.6 hPa16.1 kmENE (70°)18.5 km/hMostly Cloudy
4:54 AM25 °C22.8 °C88 %1014.9 hPa14.5 kmENE (60°)24.1 km/h0 mmRainLight Rain
5:54 AM24.4 °C23.3 °C94 %1015.9 hPa9.7 kmENE (60°)33.3 km/h38.9 km/h0.25 mmRainRain
6:02 AM24 °C23 °C94 %1016.6 hPa8 kmENE (60°)27.8 km/h0.51 mmRainLight Rain
6:54 AM24.4 °C22.8 °C91 %1016.3 hPa16.1 kmENE (60°)18.5 km/h0.51 mmScattered Clouds
7:54 AM25 °C22.8 °C88 %1016.9 hPa14.5 kmENE (60°)27.8 km/h40.7 km/h0 mmRainLight Rain
8:54 AM24.4 °C23.3 °C94 %1017.3 hPa4.8 kmENE (70°)27.8 km/h40.7 km/h0.76 mmRainLight Rain
9:15 AM24 °C23 °C94 %1018.3 hPa6.4 kmENE (70°)29.6 km/h42.6 km/h0.76 mmRainLight Rain
9:32 AM25 °C24 °C94 %1018.3 hPa16.1 kmNE (40°)22.2 km/h1.27 mmMostly Cloudy
9:54 AM26.1 °C23.3 °C84 %1017.3 hPa16.1 kmNE (50°)25.9 km/h38.9 km/h1.27 mmMostly Cloudy
10:42 AM26 °C23 °C83 %1017.6 hPa16.1 kmNE (40°)35.2 km/h42.6 km/h0 mmMostly Cloudy
10:54 AM27.2 °C23.3 °C79 %1016.9 hPa16.1 kmENE (60°)37 km/h0 mmMostly Cloudy
11:27 AM27 °C22 °C74 %1017.3 hPa16.1 kmNE (50°)40.7 km/h51.8 km/hMostly Cloudy
11:54 AM27.8 °C21.7 °C69 %1016.3 hPa16.1 kmNE (50°)40.7 km/h53.8 km/hMostly Cloudy
12:47 PM26 °C23 °C83 %1016.6 hPa9.7 kmNE (50°)40.7 km/h57.5 km/h0 mmRainLight Rain
12:54 PM25.6 °C23.9 °C90 %1015.6 hPa11.3 kmNE (50°)31.5 km/h57.5 km/h0 mmRainLight Rain
1:30 PM26 °C24 °C89 %1015.9 hPa9.7 kmNE (50°)31.5 km/h37 km/h0 mmRainLight Rain
1:45 PM26 °C24 °C89 %1015.6 hPa11.3 kmNE (40°)31.5 km/h42.6 km/h0 mmRainLight Rain
1:54 PM26.1 °C23.9 °C88 %1014.9 hPa16.1 kmNE (40°)38.9 km/h48.1 km/h0 mmMostly Cloudy
1:57 PM26 °C24 °C89 %1015.6 hPa16.1 kmNE (50°)37 km/h48.1 km/hMostly Cloudy
2:08 PM27 °C23 °C79 %1015.2 hPa14.5 kmNE (50°)38.9 km/h51.8 km/hMostly Cloudy
2:24 PM27 °C23 °C79 %1015.2 hPa16.1 kmNE (50°)38.9 km/h50.1 km/hScattered Clouds
2:54 PM27.8 °C22.2 °C71 %1014.2 hPa16.1 kmNE (50°)42.6 km/h48.1 km/hMostly Cloudy
3:08 PM27 °C22 °C74 %1014.9 hPa16.1 kmNE (40°)40.7 km/h50.1 km/hMostly Cloudy
3:54 PM26.7 °C21.7 °C74 %1014.6 hPa16.1 kmNE (40°)33.3 km/hMostly Cloudy
4:23 PM27 °C22 °C74 %1015.2 hPa14.5 kmNNE (30°)29.6 km/h46.3 km/hOvercast
4:34 PM25 °C23 °C89 %1015.2 hPa8 kmNNE (30°)33.3 km/h46.3 km/h0 mmOvercast
4:54 PM25 °C22.8 °C88 %1014.9 hPa8 kmNE (40°)29.6 km/h40.7 km/h0 mmRainLight Rain
5:54 PM23.9 °C22.8 °C94 %1015.2 hPa16.1 kmNNE (30°)25.9 km/h37 km/h0.25 mmOvercast
6:29 PM24 °C23 °C94 %1016.3 hPa14.5 kmNNE (30°)31.5 km/h44.4 km/h0 mmRainLight Rain
6:37 PM23 °C23 °C100 %1016.3 hPa14.5 kmNE (40°)25.9 km/h44.4 km/h0 mmOvercast
6:51 PM23 °C23 °C100 %1016.3 hPa16.1 kmNNE (30°)22.2 km/h0 mmOvercast
6:54 PM23.9 °C22.8 °C94 %1015.9 hPa9.7 kmNNE (30°)25.9 km/h0 mmRainLight Rain
7:19 PM24 °C23 °C94 %1016.6 hPa16.1 kmNNE (20°)20.4 km/h35.2 km/h0.25 mmOvercast
7:54 PM23.9 °C22.8 °C94 %1016.3 hPa16.1 kmNNE (20°)25.9 km/h33.3 km/h0.25 mmOvercast
8:41 PM23 °C23 °C100 %1017.6 hPa16.1 kmNNE (30°)24.1 km/h29.6 km/h0 mmOvercast
8:54 PM23.3 °C22.2 °C93 %1016.9 hPa9.7 kmNNE (30°)29.6 km/h40.7 km/h0 mmRainLight Rain
9:54 PM23.3 °C22.2 °C93 %1017.6 hPa16.1 kmNNE (20°)16.7 km/hOvercast
10:03 PM23 °C22 °C94 %1018.3 hPa12.9 kmNE (40°)27.8 km/h37 km/h0 mmRainLight Rain
10:16 PM23 °C22 °C94 %1018.3 hPa16.1 kmNNE (20°)18.5 km/h0 mmOvercast
10:54 PM23.9 °C21.1 °C84 %1017.6 hPa16.1 kmNNE (30°)22.2 km/h0 mmOvercast
11:54 PM24.4 °C20.6 °C79 %1017.3 hPa16.1 kmNNE (30°)18.5 km/hOvercast
Hourly data recorded from PGUM, located 0 kilometers away from Potts Junction, Guam







STORIES FROM OUR PARTNERS